Weather reports worldwide

Advertisment
Koblenz/Falkensteinkaserne, Germany (10516): temperature & dewpoint: 07.12.2018 10:00:00 - 13.12.2018 10:00:00 (CET)Koblenz/Falkensteinkaserne, Germany (10516): wind speed: 07.12.2018 10:00:00 - 13.12.2018 10:00:00 (CET)Koblenz/Falkensteinkaserne, Germany (10516): wind direction: 07.12.2018 10:00:00 - 13.12.2018 10:00:00 (CET)Koblenz/Falkensteinkaserne, Germany (10516): reduced air pressure: 07.12.2018 10:00:00 - 13.12.2018 10:00:00 (CET)Koblenz/Falkensteinkaserne, Germany (10516): visibility: 07.12.2018 10:00:00 - 13.12.2018 10:00:00 (CET)
Date & Time tt [°C] td [°C] ff [km/h] ff [kn] dd ppp [hPa] vv [km]
13.12.2018 10:00:00 0,7 -3,8 11 6 E 1021,5 25
13.12.2018 09:00:00 0,8 -3,5 14 8 E 1021,4 25
13.12.2018 08:00:00 1,2 -3,1 7 4 E 1021,1 25
13.12.2018 07:00:00 1,5 -2,4 7 4 E 1021,1 25
13.12.2018 06:00:00 1,8 -1,8 11 6 ENE 1021,2 -
13.12.2018 05:00:00 2,1 -1,1 11 6 E 1021,5 -
13.12.2018 04:00:00 1,6 -1,2 4 2 ESE 1022,2 -
13.12.2018 03:00:00 2,7 -0,7 7 4 ENE 1022,5 -
13.12.2018 02:00:00 2,8 -0,6 4 2 NE 1022,8 -
13.12.2018 01:00:00 3,0 -0,6 4 2 E 1023,1 -
13.12.2018 00:00:00 3,2 -0,9 4 2 N 1023,7 -
12.12.2018 23:00:00 3,5 -0,9 7 4 NE 1023,9 -
12.12.2018 22:00:00 2,9 -0,3 4 2 WNW 1024,1 -
12.12.2018 21:00:00 3,0 -0,6 4 2 WNW 1024,2 18
12.12.2018 20:00:00 3,1 -0,8 7 4 NE 1024,4 18
12.12.2018 19:00:00 3,5 -0,6 4 2 NNE 1024,5 20
12.12.2018 18:00:00 2,8 -0,3 4 2 W 1024,7 20
12.12.2018 17:00:00 3,6 -1,7 4 2 N 1024,3 20
12.12.2018 16:00:00 4,3 -1,6 4 2 ENE 1024,3 20
12.12.2018 15:00:00 4,7 -1,5 7 4 N 1024,6 15
12.12.2018 14:00:00 4,7 0,2 4 2 WNW 1024,9 15
12.12.2018 13:00:00 4,5 0,3 4 2 N 1025,3 8
12.12.2018 12:00:00 4,1 0,8 4 2 NNW 1025,9 5
12.12.2018 11:00:00 4,0 1,7 4 2 N 1026,0 5
12.12.2018 10:00:00 3,3 1,8 4 2 N 1025,8 3,5
12.12.2018 09:00:00 2,8 1,4 4 2 NW 1025,9 3,5
12.12.2018 08:00:00 2,7 1,4 7 4 WSW 1025,5 3,5
12.12.2018 07:00:00 2,5 1,3 4 2 N 1025,2 3,5
12.12.2018 06:00:00 2,5 1,2 4 2 N 1025,1 -
12.12.2018 05:00:00 2,3 1,1 4 2 N 1025,3 -
12.12.2018 04:00:00 2,2 1,3 4 2 N 1025,3 -
12.12.2018 03:00:00 2,0 1,2 7 4 WSW 1025,2 -
12.12.2018 02:00:00 1,3 0,6 4 2 N 1025,1 -
12.12.2018 01:00:00 1,5 0,6 4 2 N 1025,2 -
12.12.2018 00:00:00 1,9 1,1 7 4 SW 1025,1 -
11.12.2018 23:00:00 1,9 1,0 4 2 NW 1025,0 -
11.12.2018 22:00:00 1,4 0,3 4 2 E 1025,1 -
11.12.2018 21:00:00 2,6 1,2 4 2 W 1025,0 -
11.12.2018 20:00:00 3,6 1,9 4 2 SW 1025,0 -
11.12.2018 19:00:00 3,3 1,1 4 2 SW 1024,7 15
11.12.2018 18:00:00 3,7 1,2 7 4 N 1024,3 15
11.12.2018 17:00:00 4,2 1,5 7 4 NW 1024,2 15
11.12.2018 16:00:00 4,3 1,8 4 2 N 1024,1 15
11.12.2018 15:00:00 4,8 1,7 7 4 WNW 1024,2 20
11.12.2018 14:00:00 4,5 2,2 7 4 WNW 1024,4 12
11.12.2018 13:00:00 4,7 1,6 11 6 NNW 1024,6 12
11.12.2018 12:00:00 4,7 1,4 11 6 WNW 1024,8 12
11.12.2018 11:00:00 4,1 1,6 7 4 N 1024,8 12
11.12.2018 10:00:00 3,7 1,7 7 4 N 1024,7 12
11.12.2018 09:00:00 3,5 1,8 7 4 N 1024,3 10
11.12.2018 08:00:00 3,5 1,7 4 2 W 1024,0 10
11.12.2018 07:00:00 4,3 1,6 11 6 NW 1024,0 8
11.12.2018 06:00:00 4,3 1,3 11 6 WNW 1023,9 -
11.12.2018 05:00:00 4,2 1,3 7 4 WNW 1024,0 -
11.12.2018 04:00:00 4,2 1,7 7 4 NW 1024,0 -
11.12.2018 03:00:00 4,3 1,4 11 6 NW 1024,0 -
11.12.2018 02:00:00 4,5 1,1 7 4 NW 1023,8 -
11.12.2018 01:00:00 4,0 1,0 4 2 NW 1023,8 -
11.12.2018 00:00:00 4,2 0,7 7 4 NW 1023,8 -
10.12.2018 23:00:00 4,0 0,7 7 4 NW 1023,9 -
10.12.2018 22:00:00 3,8 0,5 7 4 WNW 1023,9 -
10.12.2018 21:00:00 4,5 1,2 11 6 NW 1023,5 -
10.12.2018 20:00:00 4,3 1,3 11 6 NW 1023,6 -
10.12.2018 19:00:00 4,5 1,4 11 6 NW 1023,4 15
10.12.2018 18:00:00 4,3 1,9 11 6 WNW 1023,0 15
10.12.2018 17:00:00 4,2 2,0 11 6 WNW 1022,9 15
10.12.2018 16:00:00 4,4 2,2 14 8 NW 1022,5 8
10.12.2018 15:00:00 6,8 1,3 7 4 W 1021,4 20
10.12.2018 14:00:00 5,4 2,1 7 4 NW 1022,1 20
10.12.2018 13:00:00 5,5 1,7 14 8 W 1022,5 8
10.12.2018 12:00:00 5,5 2,1 7 4 W 1022,8 12
10.12.2018 11:00:00 5,7 1,3 7 4 W 1022,7 15
10.12.2018 10:00:00 5,7 1,5 11 6 W 1022,1 18
10.12.2018 09:00:00 5,3 1,6 7 4 WNW 1021,7 18
10.12.2018 08:00:00 5,0 1,8 11 6 WNW 1021,2 18
10.12.2018 07:00:00 5,0 2,2 7 4 N 1020,6 18
10.12.2018 06:00:00 4,9 2,1 14 8 WNW 1020,2 -
10.12.2018 05:00:00 5,2 2,1 14 8 NW 1019,6 -
10.12.2018 04:00:00 5,5 1,5 14 8 NW 1018,9 -
10.12.2018 03:00:00 5,9 2,0 14 8 WNW 1018,2 -
10.12.2018 02:00:00 5,3 2,5 18 10 NNW 1017,5 -
10.12.2018 01:00:00 6,1 2,4 14 8 WNW 1016,5 -
10.12.2018 00:00:00 6,4 2,9 18 10 WNW 1015,9 -
09.12.2018 23:00:00 6,8 2,9 14 8 WNW 1014,9 -
09.12.2018 22:00:00 6,8 3,7 14 8 NW 1013,6 -
09.12.2018 21:00:00 7,1 4,2 18 10 NW 1012,4 -
09.12.2018 20:00:00 7,9 3,5 22 12 WNW 1010,9 -
09.12.2018 19:00:00 8,0 3,8 14 8 WNW 1009,5 -
09.12.2018 18:00:00 7,8 4,3 14 8 W 1007,7 -
09.12.2018 17:00:00 7,5 4,7 11 6 WNW 1006,6 -
09.12.2018 16:00:00 7,5 4,8 18 10 NW 1005,2 -
09.12.2018 15:00:00 7,7 4,6 11 6 W 1003,4 -
09.12.2018 14:00:00 6,1 4,4 11 6 WNW 1003,0 -
09.12.2018 13:00:00 7,7 5,8 11 6 SW 1001,6 -
09.12.2018 12:00:00 7,3 4,6 14 8 WSW 1002,0 -
09.12.2018 11:00:00 8,3 4,4 14 8 SW 1001,7 -
09.12.2018 10:00:00 8,5 4,1 11 6 SW 1001,6 -
09.12.2018 09:00:00 8,8 3,3 11 6 WSW 1001,0 -
09.12.2018 08:00:00 8,5 3,6 11 6 WSW 999,9 -
09.12.2018 07:00:00 7,5 3,8 11 6 SW 999,4 -
09.12.2018 06:00:00 8,5 3,5 14 8 WSW 998,9 -
09.12.2018 05:00:00 8,7 3,5 11 6 WSW 998,6 -
09.12.2018 04:00:00 9,4 3,3 14 8 WSW 998,4 -
09.12.2018 03:00:00 9,4 4,2 11 6 WSW 998,0 -
09.12.2018 02:00:00 9,6 4,4 14 8 WSW 997,7 -
09.12.2018 01:00:00 10,3 3,7 18 10 WSW 997,8 -
09.12.2018 00:00:00 9,9 6,8 11 6 SW 998,0 -
08.12.2018 23:00:00 10,0 7,0 22 12 SW 998,9 -
08.12.2018 22:00:00 9,6 6,7 22 12 SW 999,7 -
08.12.2018 21:00:00 9,3 6,1 18 10 SW 1001,9 -
08.12.2018 20:00:00 8,9 5,4 14 8 SSW 1003,4 -
08.12.2018 19:00:00 8,8 5,2 18 10 SW 1005,1 -
08.12.2018 18:00:00 8,8 5,0 14 8 SW 1006,3 -
08.12.2018 17:00:00 8,3 5,0 11 6 SW 1007,2 -
08.12.2018 16:00:00 8,8 4,7 18 10 SW 1007,2 -
08.12.2018 15:00:00 8,9 4,9 11 6 SW 1007,5 -
08.12.2018 14:00:00 8,6 4,5 14 8 SW 1007,7 -
08.12.2018 13:00:00 8,7 3,9 14 8 WSW 1007,7 -
08.12.2018 12:00:00 7,7 4,6 14 8 SW 1007,8 -
08.12.2018 11:00:00 7,2 3,5 18 10 SW 1008,2 -
08.12.2018 10:00:00 7,0 3,2 18 10 SW 1008,4 -
08.12.2018 09:00:00 6,5 3,3 18 10 SW 1008,5 -
08.12.2018 08:00:00 7,0 3,0 18 10 SW 1008,5 -
08.12.2018 07:00:00 6,7 3,4 14 8 SW 1009,0 -
08.12.2018 06:00:00 6,7 3,0 14 8 SW 1009,3 -
08.12.2018 05:00:00 6,5 2,9 14 8 SW 1009,5 -
08.12.2018 04:00:00 6,7 2,6 14 8 SSW 1009,8 -
08.12.2018 03:00:00 6,8 1,8 11 6 WSW 1009,9 -
08.12.2018 02:00:00 7,0 2,5 11 6 SSW 1009,2 -
08.12.2018 01:00:00 7,2 1,9 7 4 SW 1009,3 -
08.12.2018 00:00:00 7,0 2,7 7 4 SW 1008,8 -
07.12.2018 23:00:00 7,0 2,2 7 4 WSW 1008,0 -
07.12.2018 22:00:00 8,1 2,5 11 6 WNW 1007,0 -
07.12.2018 21:00:00 9,3 4,1 18 10 W 1004,4 15
07.12.2018 20:00:00 10,3 5,5 14 8 W 1002,5 15
07.12.2018 19:00:00 10,7 6,9 11 6 SSW 1001,2 15
07.12.2018 18:00:00 10,7 6,6 11 6 SSW 1002,3 20
07.12.2018 17:00:00 11,2 6,1 11 6 SSW 1004,0 25
07.12.2018 16:00:00 11,1 6,9 11 6 SSW 1005,5 25
07.12.2018 15:00:00 12,0 6,8 14 8 SSW 1006,2 25
07.12.2018 14:00:00 12,0 6,9 11 6 SSW 1007,6 25
07.12.2018 13:00:00 11,9 7,1 11 6 SW 1009,0 25
07.12.2018 12:00:00 11,6 7,4 11 6 SW 1010,8 20
07.12.2018 11:00:00 11,5 7,9 11 6 SSW 1012,0 20
07.12.2018 10:00:00 11,7 7,7 14 8 SW 1012,6 20

tt = temperature
td = dewpoint
ff = wind speed
dd = wind direction
ppp = reduced air pressure
vv = visibility

Next stations